,,Stat5,,Stat1,,Stat2,,Stat3,,Stat4,,Wind1,,Wind1,
time,status,PA1M_AVG,status,PR1M_SUM,status,RH1M_AVG,status,SR1M_AVG,status,TA1M_AVG,status,W1dAve1m,status,W1sAve1m,
2003-03-03, 00:00:00,VALID,918.547,VALID,0,VALID,95.4136,VALID,0.0169808,VALID,18.5441,VALID,292,VALID,0.0659951,
2003-03-03, 00:01:00,VALID,918.547,VALID,0,VALID,95.7099,VALID,0,VALID,18.521,VALID,292,VALID,0.0596217,
2003-03-03, 00:02:00,VALID,918.549,VALID,0,VALID,95.4339,VALID,0,VALID,18.4954,VALID,314,VALID,0.272615,
2003-03-03, 00:03:00,VALID,918.553,VALID,0,VALID,93.8597,VALID,0,VALID,18.2789,VALID,2,VALID,0.457137,
2003-03-03, 00:04:00,VALID,918.561,VALID,0,VALID,94.7295,VALID,0.0339617,VALID,18.2014,VALID,9,VALID,0.506373,
2003-03-03, 00:05:00,VALID,918.559,VALID,0,VALID,95.673,VALID,0,VALID,18.2175,VALID,7,VALID,0.261513,
2003-03-03, 00:06:00,VALID,918.565,VALID,0,VALID,96.4016,VALID,-0.0679233,VALID,18.2863,VALID,358,VALID,0.528011,
2003-03-03, 00:07:00,VALID,918.573,VALID,0,VALID,96.3279,VALID,-0.101885,VALID,18.2934,VALID,1,VALID,0.490234,
2003-03-03, 00:08:00,VALID,918.575,VALID,0,VALID,96.3851,VALID,-0.0849042,VALID,18.274,VALID,3,VALID,0.564236,
2003-03-03, 00:09:00,VALID,918.558,VALID,0,VALID,96.1969,VALID,-0.118866,VALID,18.245,VALID,4,VALID,0.789263,
2003-03-03, 00:10:00,VALID,918.541,VALID,0,VALID,96.202,VALID,-0.101885,VALID,18.1797,VALID,11,VALID,1.05664,
2003-03-03, 00:11:00,VALID,918.499,VALID,0,VALID,96.7475,VALID,-0.0849042,VALID,18.2092,VALID,11,VALID,0.951647,
2003-03-03, 00:12:00,VALID,918.481,VALID,0,VALID,96.8123,VALID,-0.0679233,VALID,18.2189,VALID,10,VALID,0.763281,
2003-03-03, 00:13:00,VALID,918.466,VALID,0,VALID,97.1252,VALID,0,VALID,18.2468,VALID,351,VALID,0.544643,
2003-03-03, 00:14:00,VALID,918.445,VALID,0,VALID,97.1519,VALID,0,VALID,18.2727,VALID,351,VALID,0.363281,
2003-03-03, 00:15:00,VALID,918.413,VALID,0,VALID,97.2129,VALID,0,VALID,18.3022,VALID,350,VALID,0.337946,
2003-03-03, 00:16:00,VALID,918.398,VALID,0,VALID,97.1646,VALID,0,VALID,18.3276,VALID,350,VALID,0.322163,
2003-03-03, 00:17:00,VALID,918.405,VALID,0,VALID,96.9802,VALID,0,VALID,18.3177,VALID,350,VALID,0,
2003-03-03, 00:18:00,VALID,918.406,VALID,0,VALID,97.2485,VALID,0,VALID,18.3599,VALID,272,VALID,0.354384,
2003-03-03, 00:19:00,VALID,918.376,VALID,0,VALID,96.5962,VALID,0,VALID,18.3629,VALID,332,VALID,0.344141,
2003-03-03, 00:20:00,VALID,918.376,VALID,0,VALID,96.3495,VALID,0,VALID,18.2888,VALID,321,VALID,0.250401,
2003-03-03, 00:21:00,VALID,918.353,VALID,0,VALID,96.5669,VALID,-0.0169808,VALID,18.3149,VALID,311,VALID,0.0308594,
2003-03-03, 00:22:00,VALID,918.33,VALID,0,VALID,96.1626,VALID,0,VALID,18.2595,VALID,311,VALID,0,
2003-03-03, 00:23:00,VALID,918.339,VALID,0,VALID,96.1168,VALID,-0.0339617,VALID,18.2277,VALID,311,VALID,0.0433036,
2003-03-03, 00:24:00,VALID,918.355,VALID,0,VALID,96.4487,VALID,0,VALID,18.254,VALID,310,VALID,0.140214,
2003-03-03, 00:25:00,VALID,918.365,VALID,0,VALID,96.5974,VALID,0,VALID,18.2761,VALID,261,VALID,0.37717,
2003-03-03, 00:26:00,VALID,918.371,VALID,0,VALID,96.8378,VALID,0,VALID,18.311,VALID,253,VALID,0.275082,
2003-03-03, 00:27:00,VALID,918.333,VALID,0,VALID,96.4283,VALID,0,VALID,18.3151,VALID,280,VALID,0.287829,
2003-03-03, 00:28:00,VALID,918.295,VALID,0,VALID,94.7816,VALID,0,VALID,18.1079,VALID,15,VALID,0.27793,
2003-03-03, 00:29:00,VALID,918.278,VALID,0,VALID,95.5077,VALID,0,VALID,18.0696,VALID,15,VALID,0.172098,
2003-03-03, 00:30:00,VALID,918.265,VALID,0,VALID,95.9604,VALID,-0.0169808,VALID,18.0336,VALID,15,VALID,0.184495,
2003-03-03, 00:31:00,VALID,918.277,VALID,0,VALID,96.408,VALID,-0.0169808,VALID,18.0304,VALID,15,VALID,0.0638672,
2003-03-03, 00:32:00,VALID,918.274,VALID,0,VALID,97.1112,VALID,0.0169808,VALID,18.089,VALID,14,VALID,0.34016,
2003-03-03, 00:33:00,VALID,918.271,VALID,0,VALID,97.307,VALID,0.0169808,VALID,18.1243,VALID,15,VALID,0.0481086,
2003-03-03, 00:34:00,VALID,918.258,VALID,0,VALID,97.4189,VALID,-0.0169808,VALID,18.1598,VALID,15,VALID,0,
2003-03-03, 00:35:00,VALID,918.262,VALID,0,VALID,97.3986,VALID,0,VALID,18.179,VALID,15,VALID,0,
2003-03-03, 00:36:00,VALID,918.257,VALID,0,VALID,97.41,VALID,0,VALID,18.1919,VALID,15,VALID,0,
2003-03-03, 00:37:00,VALID,918.242,VALID,0,VALID,97.4354,VALID,0,VALID,18.2182,VALID,15,VALID,0,
2003-03-03, 00:38:00,VALID,918.245,VALID,0,VALID,97.5906,VALID,-0.0339617,VALID,18.244,VALID,15,VALID,0.248522,
2003-03-03, 00:39:00,VALID,918.237,VALID,0,VALID,97.6198,VALID,-0.0339617,VALID,18.299,VALID,15,VALID,0.00390625,
2003-03-03, 00:40:00,VALID,918.21,VALID,0,VALID,97.1773,VALID,-0.0169808,VALID,18.2893,VALID,15,VALID,0,
2003-03-03, 00:41:00,VALID,918.182,VALID,0,VALID,96.4728,VALID,-0.0169808,VALID,18.205,VALID,15,VALID,0,
2003-03-03, 00:42:00,VALID,918.148,VALID,0,VALID,96.3876,VALID,-0.0169808,VALID,18.1241,VALID,15,VALID,0,
2003-03-03, 00:43:00,VALID,918.119,VALID,0,VALID,96.4499,VALID,-0.0339617,VALID,18.0694,VALID,15,VALID,0.130208,
2003-03-03, 00:44:00,VALID,918.108,VALID,0,VALID,96.3419,VALID,-0.0169808,VALID,18.0144,VALID,15,VALID,0.0536024,
2003-03-03, 00:45:00,VALID,918.101,VALID,0,VALID,96.3419,VALID,-0.0339617,VALID,17.963,VALID,15,VALID,0,
2003-03-03, 00:46:00,VALID,918.095,VALID,0,VALID,96.5657,VALID,0,VALID,17.9369,VALID,15,VALID,0,
2003-03-03, 00:47:00,VALID,918.08,VALID,0,VALID,96.6788,VALID,0,VALID,17.9274,VALID,15,VALID,0,
2003-03-03, 00:48:00,VALID,918.061,VALID,0,VALID,96.6598,VALID,0,VALID,17.9076,VALID,15,VALID,0,
2003-03-03, 00:49:00,VALID,918.038,VALID,0,VALID,96.6305,VALID,-0.0339617,VALID,17.8917,VALID,15,VALID,0,
2003-03-03, 00:50:00,VALID,918.006,VALID,0,VALID,95.9451,VALID,-0.0169808,VALID,17.8146,VALID,15,VALID,0.246299,
2003-03-03, 00:51:00,VALID,917.958,VALID,0,VALID,96.352,VALID,0,VALID,17.7634,VALID,360,VALID,0.747122,
2003-03-03, 00:52:00,VALID,917.916,VALID,0,VALID,96.6178,VALID,-0.0169808,VALID,17.7659,VALID,357,VALID,0.523819,
2003-03-03, 00:53:00,VALID,917.898,VALID,0,VALID,96.956,VALID,-0.0169808,VALID,17.7819,VALID,357,VALID,0.440104,
2003-03-03, 00:54:00,VALID,917.892,VALID,0,VALID,97.3884,VALID,-0.0169808,VALID,17.8467,VALID,357,VALID,0.399439,
2003-03-03, 00:55:00,VALID,917.873,VALID,0,VALID,97.3782,VALID,-0.0509425,VALID,17.8792,VALID,357,VALID,0.173353,
2003-03-03, 00:56:00,VALID,917.868,VALID,0,VALID,97.2447,VALID,-0.0509425,VALID,17.899,VALID,357,VALID,0.0996094,
2003-03-03, 00:57:00,VALID,917.845,VALID,0,VALID,97.2879,VALID,-0.0849042,VALID,17.8954,VALID,1,VALID,0.40579,
2003-03-03, 00:58:00,VALID,917.815,VALID,0,VALID,97.2078,VALID,-0.0679233,VALID,17.9383,VALID,14,VALID,0.370898,
2003-03-03, 00:59:00,VALID,917.773,VALID,0,VALID,97.1124,VALID,-0.0849042,VALID,17.9445,VALID,16,VALID,0.411258,
2003-03-03, 01:00:00,VALID,917.766,VALID,0,VALID,96.8746,VALID,-0.0849042,VALID,17.9281,VALID,17,VALID,0.26398,
2003-03-03, 01:01:00,VALID,917.769,VALID,0,VALID,96.8225,VALID,-0.0169808,VALID,17.9249,VALID,17,VALID,0.0123355,
2003-03-03, 01:02:00,VALID,917.767,VALID,0,VALID,96.9573,VALID,-0.0509425,VALID,17.9344,VALID,17,VALID,0.00605469,
2003-03-03, 01:03:00,VALID,917.758,VALID,0,VALID,97.0145,VALID,-0.0679233,VALID,17.9731,VALID,17,VALID,0.0513672,
2003-03-03, 01:04:00,VALID,917.727,VALID,0,VALID,96.8746,VALID,-0.0509425,VALID,17.963,VALID,17,VALID,0,
2003-03-03, 01:05:00,VALID,917.684,VALID,0,VALID,96.0913,VALID,0,VALID,17.9051,VALID,17,VALID,0.109992,
2003-03-03, 01:06:00,VALID,917.658,VALID,0,VALID,96.1206,VALID,-0.0339617,VALID,17.8444,VALID,17,VALID,0.0745192,
2003-03-03, 01:07:00,VALID,917.629,VALID,0,VALID,95.7722,VALID,0,VALID,17.7957,VALID,17,VALID,0.102965,
2003-03-03, 01:08:00,VALID,917.625,VALID,0,VALID,95.7785,VALID,0,VALID,17.7239,VALID,343,VALID,0.173142,
2003-03-03, 01:09:00,VALID,917.634,VALID,0,VALID,96.3889,VALID,-0.0169808,VALID,17.7655,VALID,337,VALID,0.0594952,
2003-03-03, 01:10:00,VALID,917.594,VALID,0,VALID,96.8149,VALID,-0.0169808,VALID,17.8178,VALID,336,VALID,0.28342,
2003-03-03, 01:11:00,VALID,917.564,VALID,0,VALID,96.839,VALID,0,VALID,17.8792,VALID,310,VALID,0.363064,
2003-03-03, 01:12:00,VALID,917.531,VALID,0,VALID,96.4588,VALID,0,VALID,17.8146,VALID,338,VALID,0.198437,
2003-03-03, 01:13:00,VALID,917.496,VALID,0,VALID,96.5669,VALID,-0.0169808,VALID,17.792,VALID,6,VALID,0.447846,
2003-03-03, 01:14:00,VALID,917.474,VALID,0,VALID,96.6534,VALID,0,VALID,17.7888,VALID,2,VALID,0.674079,
2003-03-03, 01:15:00,VALID,917.457,VALID,0,VALID,96.5606,VALID,0,VALID,17.8118,VALID,357,VALID,0.442229,
2003-03-03, 01:16:00,VALID,917.454,VALID,0,VALID,96.6725,VALID,0,VALID,17.8178,VALID,351,VALID,0.428925,
2003-03-03, 01:17:00,VALID,917.458,VALID,0,VALID,96.9408,VALID,0,VALID,17.8919,VALID,315,VALID,0.22516,
2003-03-03, 01:18:00,VALID,917.445,VALID,0,VALID,96.6852,VALID,0,VALID,17.9341,VALID,311,VALID,0,
2003-03-03, 01:19:00,VALID,917.425,VALID,0,VALID,96.4181,VALID,0,VALID,17.9374,VALID,311,VALID,0.00117188,
2003-03-03, 01:20:00,VALID,917.431,VALID,0,VALID,95.8663,VALID,0,VALID,17.8921,VALID,311,VALID,0.00120192,
2003-03-03, 01:21:00,VALID,917.425,VALID,0,VALID,95.7912,VALID,0,VALID,17.8891,VALID,314,VALID,0.0176809,
2003-03-03, 01:22:00,VALID,917.425,VALID,0,VALID,95.5967,VALID,0,VALID,17.8538,VALID,315,VALID,0,
2003-03-03, 01:23:00,VALID,917.435,VALID,0,VALID,95.5878,VALID,0,VALID,17.8015,VALID,315,VALID,0.0550881,
2003-03-03, 01:24:00,VALID,917.439,VALID,0,VALID,96.352,VALID,-0.0169808,VALID,17.8471,VALID,304,VALID,0.355699,
2003-03-03, 01:25:00,VALID,917.427,VALID,0,VALID,96.7106,VALID,0,VALID,17.9316,VALID,257,VALID,0.356571,
2003-03-03, 01:26:00,VALID,917.427,VALID,0,VALID,96.5148,VALID,-0.0169808,VALID,17.9602,VALID,250,VALID,0.00411184,
2003-03-03, 01:27:00,VALID,917.405,VALID,0,VALID,96.633,VALID,-0.0169808,VALID,17.9634,VALID,250,VALID,0,
2003-03-03, 01:28:00,VALID,917.378,VALID,0,VALID,96.7602,VALID,0,VALID,17.9895,VALID,272,VALID,0.219806,
2003-03-03, 01:29:00,VALID,917.353,VALID,0,VALID,96.5707,VALID,-0.0169808,VALID,17.9667,VALID,292,VALID,0.233008,
2003-03-03, 01:30:00,VALID,917.355,VALID,0,VALID,95.9349,VALID,0,VALID,17.873,VALID,292,VALID,0.288651,
2003-03-03, 01:31:00,VALID,917.362,VALID,0,VALID,96.0074,VALID,0,VALID,17.792,VALID,291,VALID,0.141681,
2003-03-03, 01:32:00,VALID,917.368,VALID,0,VALID,96.4995,VALID,0,VALID,17.8183,VALID,292,VALID,0.0160256,
2003-03-03, 01:33:00,VALID,917.369,VALID,0,VALID,96.4359,VALID,-0.0169808,VALID,17.8019,VALID,292,VALID,0,
2003-03-03, 01:34:00,VALID,917.381,VALID,0,VALID,96.2071,VALID,0,VALID,17.7629,VALID,292,VALID,0,
2003-03-03, 01:35:00,VALID,917.376,VALID,0,VALID,96.2528,VALID,0,VALID,17.7373,VALID,292,VALID,0,
2003-03-03, 01:36:00,VALID,917.375,VALID,0,VALID,96.1765,VALID,0,VALID,17.7214,VALID,292,VALID,0,
2003-03-03, 01:37:00,VALID,917.364,VALID,0,VALID,96.015,VALID,0,VALID,17.6955,VALID,292,VALID,0,
2003-03-03, 01:38:00,VALID,917.346,VALID,0,VALID,95.9413,VALID,0,VALID,17.6697,VALID,292,VALID,0.133868,
2003-03-03, 01:39:00,VALID,917.329,VALID,0,VALID,96.2325,VALID,0.0169808,VALID,17.6565,VALID,292,VALID,0.330412,
2003-03-03, 01:40:00,VALID,917.304,VALID,0,VALID,96.305,VALID,0,VALID,17.6598,VALID,292,VALID,0.230686,
2003-03-03, 01:41:00,VALID,917.297,VALID,0,VALID,96.2986,VALID,0,VALID,17.6305,VALID,292,VALID,0.116406,
2003-03-03, 01:42:00,VALID,917.281,VALID,0,VALID,96.4067,VALID,0,VALID,17.6242,VALID,292,VALID,0,
2003-03-03, 01:43:00,VALID,917.276,VALID,0,VALID,96.3673,VALID,0,VALID,17.5986,VALID,292,VALID,0.0720703,
2003-03-03, 01:44:00,VALID,917.251,VALID,0,VALID,96.4525,VALID,0,VALID,17.5986,VALID,292,VALID,0,
2003-03-03, 01:45:00,VALID,917.254,VALID,0,VALID,95.9756,VALID,0,VALID,17.5534,VALID,292,VALID,0.0884046,
2003-03-03, 01:46:00,VALID,917.263,VALID,0,VALID,96.0621,VALID,0,VALID,17.4821,VALID,292,VALID,0.0498311,
2003-03-03, 01:47:00,VALID,917.261,VALID,0,VALID,96.3965,VALID,0,VALID,17.4763,VALID,292,VALID,0.00820312,
2003-03-03, 01:48:00,VALID,917.286,VALID,0,VALID,96.7093,VALID,0,VALID,17.4367,VALID,292,VALID,0,
2003-03-03, 01:49:00,VALID,917.308,VALID,0,VALID,97.026,VALID,0,VALID,17.4632,VALID,292,VALID,0,
2003-03-03, 01:50:00,VALID,917.3,VALID,0,VALID,97.4227,VALID,0,VALID,17.4793,VALID,292,VALID,0,
2003-03-03, 01:51:00,VALID,917.291,VALID,0,VALID,97.6211,VALID,-0.0339617,VALID,17.5248,VALID,292,VALID,0,
2003-03-03, 01:52:00,VALID,917.277,VALID,0,VALID,97.6643,VALID,-0.101885,VALID,17.5543,VALID,292,VALID,0,
2003-03-03, 01:53:00,VALID,917.257,VALID,0,VALID,97.2854,VALID,-0.101885,VALID,17.5707,VALID,292,VALID,0,
2003-03-03, 01:54:00,VALID,917.249,VALID,0,VALID,96.9853,VALID,-0.0849042,VALID,17.5222,VALID,292,VALID,0,
2003-03-03, 01:55:00,VALID,917.242,VALID,0,VALID,96.8085,VALID,-0.118866,VALID,17.5033,VALID,292,VALID,0,
2003-03-03, 01:56:00,VALID,917.232,VALID,0,VALID,96.422,VALID,-0.0849042,VALID,17.4511,VALID,292,VALID,0,
2003-03-03, 01:57:00,VALID,917.209,VALID,0,VALID,96.1142,VALID,-0.0849042,VALID,17.3934,VALID,292,VALID,0,
2003-03-03, 01:58:00,VALID,917.199,VALID,0,VALID,96.029,VALID,-0.101885,VALID,17.3383,VALID,292,VALID,0,
2003-03-03, 01:59:00,VALID,917.167,VALID,0,VALID,95.8256,VALID,-0.101885,VALID,17.2636,VALID,292,VALID,0,
2003-03-03, 02:00:00,VALID,917.146,VALID,0,VALID,95.5255,VALID,-0.0849042,VALID,17.1996,VALID,292,VALID,0,
2003-03-03, 02:01:00,VALID,917.126,VALID,0,VALID,95.4899,VALID,-0.118866,VALID,17.1348,VALID,292,VALID,0,
2003-03-03, 02:02:00,VALID,917.107,VALID,0,VALID,95.9934,VALID,-0.101885,VALID,17.0962,VALID,292,VALID,0,
2003-03-03, 02:03:00,VALID,917.081,VALID,0,VALID,96.2719,VALID,-0.118866,VALID,17.0797,VALID,292,VALID,0,
2003-03-03, 02:04:00,VALID,917.076,VALID,0,VALID,96.441,VALID,-0.118866,VALID,17.0801,VALID,292,VALID,0,
2003-03-03, 02:05:00,VALID,917.094,VALID,0,VALID,96.8365,VALID,-0.0849042,VALID,17.0898,VALID,292,VALID,0,
2003-03-03, 02:06:00,VALID,917.097,VALID,0,VALID,97.0438,VALID,0,VALID,17.1176,VALID,292,VALID,0,
2003-03-03, 02:07:00,VALID,917.104,VALID,0,VALID,96.8403,VALID,0.0169808,VALID,17.1277,VALID,292,VALID,0,
2003-03-03, 02:08:00,VALID,917.093,VALID,0,VALID,96.6801,VALID,0,VALID,17.1143,VALID,292,VALID,0,
2003-03-03, 02:09:00,VALID,917.069,VALID,0,VALID,97.1671,VALID,0,VALID,17.1372,VALID,292,VALID,0,
2003-03-03, 02:10:00,VALID,917.045,VALID,0,VALID,97.3731,VALID,-0.0169808,VALID,17.205,VALID,292,VALID,0,
2003-03-03, 02:11:00,VALID,917.037,VALID,0,VALID,96.5606,VALID,0,VALID,17.1826,VALID,292,VALID,0,
2003-03-03, 02:12:00,VALID,917.049,VALID,0,VALID,96.221,VALID,0.0169808,VALID,17.1309,VALID,292,VALID,0,
2003-03-03, 02:13:00,VALID,917.06,VALID,0,VALID,95.2152,VALID,0,VALID,17.0176,VALID,292,VALID,0,
2003-03-03, 02:14:00,VALID,917.062,VALID,0,VALID,95.2737,VALID,0,VALID,16.9337,VALID,291,VALID,0.164263,
2003-03-03, 02:15:00,VALID,917.072,VALID,0,VALID,95.8764,VALID,-0.0169808,VALID,16.9434,VALID,290,VALID,0.34976,
2003-03-03, 02:16:00,VALID,917.085,VALID,0,VALID,97.2574,VALID,0,VALID,17.1602,VALID,290,VALID,0.129223,
2003-03-03, 02:17:00,VALID,917.089,VALID,0,VALID,97.2472,VALID,-0.0339617,VALID,17.2991,VALID,290,VALID,0.166992,
2003-03-03, 02:18:00,VALID,917.082,VALID,0,VALID,96.6725,VALID,-0.0169808,VALID,17.3086,VALID,290,VALID,0.443934,
2003-03-03, 02:19:00,VALID,917.074,VALID,0,VALID,96.4372,VALID,0,VALID,17.3701,VALID,290,VALID,0.444336,
2003-03-03, 02:20:00,VALID,917.071,VALID,0,VALID,95.247,VALID,0,VALID,17.3277,VALID,290,VALID,0.263021,
2003-03-03, 02:21:00,VALID,917.053,VALID,0,VALID,93.8673,VALID,0,VALID,17.1503,VALID,290,VALID,0.0117188,
2003-03-03, 02:22:00,VALID,917.052,VALID,0,VALID,94.4395,VALID,0,VALID,17.0601,VALID,290,VALID,0.0715461,
2003-03-03, 02:23:00,VALID,917.047,VALID,0,VALID,94.7867,VALID,0,VALID,16.9754,VALID,290,VALID,0.0132813,
2003-03-03, 02:24:00,VALID,917.041,VALID,0,VALID,95.3271,VALID,-0.0169808,VALID,16.9696,VALID,289,VALID,0.23418,
2003-03-03, 02:25:00,VALID,917.017,VALID,0,VALID,95.5293,VALID,0,VALID,16.9498,VALID,289,VALID,0.0290465,
2003-03-03, 02:26:00,VALID,917.007,VALID,0,VALID,95.6107,VALID,0,VALID,16.9145,VALID,289,VALID,0.22903,
2003-03-03, 02:27:00,VALID,917.002,VALID,0,VALID,95.1262,VALID,0,VALID,16.8176,VALID,338,VALID,0.278045,
2003-03-03, 02:28:00,VALID,916.996,VALID,0,VALID,95.5662,VALID,0,VALID,16.7595,VALID,353,VALID,0.211739,
2003-03-03, 02:29:00,VALID,916.986,VALID,0,VALID,95.7849,VALID,-0.0169808,VALID,16.7113,VALID,353,VALID,0,
2003-03-03, 02:30:00,VALID,916.976,VALID,0,VALID,96.1142,VALID,0,VALID,16.6852,VALID,353,VALID,0,
2003-03-03, 02:31:00,VALID,916.958,VALID,0,VALID,96.4868,VALID,0,VALID,16.6886,VALID,353,VALID,0,
2003-03-03, 02:32:00,VALID,916.945,VALID,0,VALID,96.6788,VALID,0,VALID,16.7113,VALID,353,VALID,0,
2003-03-03, 02:33:00,VALID,916.921,VALID,0,VALID,97.1213,VALID,0,VALID,16.7821,VALID,353,VALID,0.0548828,
2003-03-03, 02:34:00,VALID,916.885,VALID,0,VALID,96.1638,VALID,0,VALID,16.7235,VALID,353,VALID,0.256123,
2003-03-03, 02:35:00,VALID,916.87,VALID,0,VALID,96.0011,VALID,0.0169808,VALID,16.6335,VALID,353,VALID,0.286859,
2003-03-03, 02:36:00,VALID,916.858,VALID,0,VALID,95.8803,VALID,0,VALID,16.5791,VALID,1,VALID,0.457237,
2003-03-03, 02:37:00,VALID,916.85,VALID,0,VALID,95.4148,VALID,0.0169808,VALID,16.4594,VALID,9,VALID,0.789063,
2003-03-03, 02:38:00,VALID,916.872,VALID,0,VALID,95.9031,VALID,0,VALID,16.3754,VALID,2,VALID,0.617388,
2003-03-03, 02:39:00,VALID,916.9,VALID,0,VALID,96.7004,VALID,0,VALID,16.4016,VALID,351,VALID,0.320735,
2003-03-03, 02:40:00,VALID,916.909,VALID,0,VALID,96.7386,VALID,-0.0169808,VALID,16.375,VALID,351,VALID,0.267188,
2003-03-03, 02:41:00,VALID,916.933,VALID,0,VALID,97.2065,VALID,-0.0169808,VALID,16.4367,VALID,351,VALID,0.223958,
2003-03-03, 02:42:00,VALID,916.943,VALID,0,VALID,97.7457,VALID,0,VALID,16.5373,VALID,351,VALID,0.22759,
2003-03-03, 02:43:00,VALID,916.932,VALID,0,VALID,98.4222,VALID,0,VALID,16.7145,VALID,347,VALID,0.221495,
2003-03-03, 02:44:00,VALID,916.908,VALID,0,VALID,98.5964,VALID,0,VALID,16.8275,VALID,336,VALID,0.0378606,
2003-03-03, 02:45:00,VALID,916.906,VALID,0,VALID,97.7597,VALID,-0.0169808,VALID,16.7375,VALID,336,VALID,0.000459559,
2003-03-03, 02:46:00,VALID,916.906,VALID,0,VALID,97.7037,VALID,0.0169808,VALID,16.7054,VALID,336,VALID,0.0757212,
2003-03-03, 02:47:00,VALID,916.904,VALID,0,VALID,97.8309,VALID,-0.0169808,VALID,16.7246,VALID,325,VALID,0.250822,
2003-03-03, 02:48:00,VALID,916.906,VALID,0,VALID,98.3205,VALID,0,VALID,16.8213,VALID,269,VALID,0.355469,
2003-03-03, 02:49:00,VALID,916.919,VALID,0,VALID,98.4553,VALID,0,VALID,16.8919,VALID,252,VALID,0.304899,
2003-03-03, 02:50:00,VALID,916.915,VALID,0,VALID,98.384,VALID,-0.0339617,VALID,16.9339,VALID,231,VALID,0.0771484,
2003-03-03, 02:51:00,VALID,916.91,VALID,0,VALID,98.1895,VALID,0,VALID,16.9212,VALID,231,VALID,0,
2003-03-03, 02:52:00,VALID,916.914,VALID,0,VALID,97.5753,VALID,0,VALID,16.8282,VALID,255,VALID,0.116554,
2003-03-03, 02:53:00,VALID,916.906,VALID,0,VALID,97.2358,VALID,-0.0169808,VALID,16.75,VALID,14,VALID,0.0639022,
2003-03-03, 02:54:00,VALID,916.919,VALID,0,VALID,97.0349,VALID,0,VALID,16.6721,VALID,14,VALID,0,
2003-03-03, 02:55:00,VALID,916.942,VALID,0,VALID,97.0247,VALID,-0.0169808,VALID,16.6503,VALID,14,VALID,0,
2003-03-03, 02:56:00,VALID,916.957,VALID,0,VALID,97.1137,VALID,0,VALID,16.6176,VALID,14,VALID,0.0945946,
2003-03-03, 02:57:00,VALID,916.96,VALID,0,VALID,97.1226,VALID,-0.0509425,VALID,16.6083,VALID,14,VALID,0.00500801,
2003-03-03, 02:58:00,VALID,916.966,VALID,0,VALID,97.4609,VALID,-0.0169808,VALID,16.6374,VALID,14,VALID,0,
2003-03-03, 02:59:00,VALID,916.94,VALID,0,VALID,97.6071,VALID,0,VALID,16.6985,VALID,14,VALID,0,
2003-03-03, 03:00:00,VALID,916.937,VALID,0,VALID,97.5397,VALID,0,VALID,16.7534,VALID,14,VALID,0,
2003-03-03, 03:01:00,VALID,916.919,VALID,0,VALID,97.3019,VALID,-0.0339617,VALID,16.8055,VALID,14,VALID,0,
2003-03-03, 03:02:00,VALID,916.912,VALID,0,VALID,97.0616,VALID,-0.0339617,VALID,16.8411,VALID,14,VALID,0,
2003-03-03, 03:03:00,VALID,916.891,VALID,0,VALID,96.9204,VALID,-0.0509425,VALID,16.8861,VALID,14,VALID,0.236178,
2003-03-03, 03:04:00,VALID,916.89,VALID,0,VALID,96.4003,VALID,-0.0169808,VALID,16.9154,VALID,14,VALID,0.262109,
2003-03-03, 03:05:00,VALID,916.877,VALID,0,VALID,95.9311,VALID,0,VALID,16.8861,VALID,14,VALID,0.111431,
2003-03-03, 03:06:00,VALID,916.856,VALID,0,VALID,96.0659,VALID,0.0339617,VALID,16.9113,VALID,14,VALID,0.193257,
2003-03-03, 03:07:00,VALID,916.856,VALID,0,VALID,95.837,VALID,0.101885,VALID,16.949,VALID,14,VALID,0.063978,
2003-03-03, 03:08:00,VALID,916.835,VALID,0,VALID,95.6743,VALID,0.101885,VALID,16.9787,VALID,14,VALID,0.000976563,
2003-03-03, 03:09:00,VALID,916.819,VALID,0,VALID,95.2661,VALID,0.101885,VALID,16.9879,VALID,14,VALID,0,
2003-03-03, 03:10:00,VALID,916.816,VALID,0,VALID,94.7549,VALID,0.0679233,VALID,16.9457,VALID,14,VALID,0.22424,
2003-03-03, 03:11:00,VALID,916.824,VALID,0,VALID,94.2984,VALID,0.0849042,VALID,16.8719,VALID,14,VALID,0.397204,
2003-03-03, 03:12:00,VALID,916.817,VALID,0,VALID,94.9978,VALID,0.101885,VALID,16.8333,VALID,14,VALID,0.336884,
2003-03-03, 03:13:00,VALID,916.817,VALID,0,VALID,95.5471,VALID,0.0849042,VALID,16.8626,VALID,14,VALID,0.232936,
2003-03-03, 03:14:00,VALID,916.788,VALID,0,VALID,95.8917,VALID,0.0679233,VALID,16.9201,VALID,14,VALID,0.288281,
2003-03-03, 03:15:00,VALID,916.773,VALID,0,VALID,95.7633,VALID,0.0849042,VALID,16.9884,VALID,14,VALID,0.0688734,
2003-03-03, 03:16:00,VALID,916.755,VALID,0,VALID,95.6501,VALID,0.0849042,VALID,17.0624,VALID,14,VALID,0.0859375,
2003-03-03, 03:17:00,VALID,916.734,VALID,0,VALID,95.5357,VALID,0.0849042,VALID,17.1109,VALID,10,VALID,0.209135,
2003-03-03, 03:18:00,VALID,916.731,VALID,0,VALID,95.4009,VALID,0.0679233,VALID,17.166,VALID,4,VALID,0.274439,
2003-03-03, 03:19:00,VALID,916.719,VALID,0,VALID,95.1999,VALID,0.101885,VALID,17.2396,VALID,3,VALID,0.426398,
2003-03-03, 03:20:00,VALID,916.713,VALID,0,VALID,94.554,VALID,0.0679233,VALID,17.2982,VALID,3,VALID,0.418586,
2003-03-03, 03:21:00,VALID,916.709,VALID,0,VALID,94.479,VALID,0.0339617,VALID,17.3053,VALID,3,VALID,0.327344,
2003-03-03, 03:22:00,VALID,916.7,VALID,0,VALID,94.5552,VALID,-0.0169808,VALID,17.3447,VALID,3,VALID,0.300223,
2003-03-03, 03:23:00,VALID,916.702,VALID,0,VALID,94.0886,VALID,-0.0509425,VALID,17.3385,VALID,3,VALID,0.236275,
2003-03-03, 03:24:00,VALID,916.715,VALID,0,VALID,93.5163,VALID,-0.0169808,VALID,17.2868,VALID,3,VALID,0.290707,
2003-03-03, 03:25:00,VALID,916.717,VALID,0,VALID,93.6371,VALID,-0.0169808,VALID,17.2123,VALID,3,VALID,0.251953,
2003-03-03, 03:26:00,VALID,916.711,VALID,0,VALID,94.1954,VALID,-0.0169808,VALID,17.2061,VALID,3,VALID,0.266276,
2003-03-03, 03:27:00,VALID,916.729,VALID,0,VALID,94.0593,VALID,-0.0339617,VALID,17.1964,VALID,3,VALID,0.316817,
2003-03-03, 03:28:00,VALID,916.724,VALID,0,VALID,94.2323,VALID,0,VALID,17.1705,VALID,3,VALID,0.379464,
2003-03-03, 03:29:00,VALID,916.72,VALID,0,VALID,94.6265,VALID,-0.0169808,VALID,17.1867,VALID,3,VALID,0.304688,
2003-03-03, 03:30:00,VALID,916.715,VALID,0,VALID,94.5692,VALID,-0.0169808,VALID,17.2031,VALID,3,VALID,0.114366,
2003-03-03, 03:31:00,VALID,916.728,VALID,0,VALID,94.4065,VALID,-0.0169808,VALID,17.1867,VALID,3,VALID,0.000844595,
2003-03-03, 03:32:00,VALID,916.743,VALID,0,VALID,94.8007,VALID,-0.0169808,VALID,17.2024,VALID,3,VALID,0,
2003-03-03, 03:33:00,VALID,916.739,VALID,0,VALID,95.3449,VALID,-0.0679233,VALID,17.2608,VALID,2,VALID,0.178248,
2003-03-03, 03:34:00,VALID,916.726,VALID,0,VALID,95.584,VALID,0,VALID,17.3514,VALID,1,VALID,0.265625,
2003-03-03, 03:35:00,VALID,916.712,VALID,0,VALID,94.7879,VALID,0,VALID,17.3478,VALID,1,VALID,0.313902,
2003-03-03, 03:36:00,VALID,916.711,VALID,0,VALID,93.2684,VALID,-0.0339617,VALID,17.1509,VALID,1,VALID,0.290465,
2003-03-03, 03:37:00,VALID,916.711,VALID,0,VALID,93.7783,VALID,-0.0169808,VALID,17.0573,VALID,354,VALID,0.136613,
2003-03-03, 03:38:00,VALID,916.72,VALID,0,VALID,94.6455,VALID,-0.0339617,VALID,17.012,VALID,319,VALID,0.376758,
2003-03-03, 03:39:00,VALID,916.701,VALID,0,VALID,95.3106,VALID,0,VALID,17.0702,VALID,335,VALID,0.143842,
2003-03-03, 03:40:00,VALID,916.681,VALID,0,VALID,95.4581,VALID,0,VALID,17.0181,VALID,358,VALID,0.0894531,
2003-03-03, 03:41:00,VALID,916.671,VALID,0,VALID,95.7645,VALID,0,VALID,17.0185,VALID,358,VALID,0,